Cleveland, OH

1:38 PM EDT on October 18, 2017 (GMT -0400)
Cleveland-Hopkins International

Weather History for KCLE - April, 2014

Change the Weather History Date:

Tuesday, April 22, 2014

  Actual Average Record
Temperature  
Mean Temperature 54 °F 52 °F  
Max Temperature 64 °F 62 °F 84 °F (1985)
Min Temperature 43 °F 43 °F 23 °F (1875)
Degree Days  
Heating Degree Days 11 13  
Month to date heating degree days 314 374  
Since 1 July heating degree days 6004 5417  
Cooling Degree Days 0 1  
Month to date cooling degree days 6 2  
Year to date cooling degree days 6 3  
Growing Degree Days 4 (Base 50)    
Moisture  
Dew Point 46 °F    
Average Humidity 65    
Maximum Humidity 86    
Minimum Humidity 43    
Precipitation  
Precipitation 0.04 in 0.11 in 0.74 in (1977)
Month to date precipitation 3.56 2.64  
Year to date precipitation 10.79 10.63  
Snow  
Snow 0.00 in 0.00 in - ()
Month to date snowfall 1.3 3.1  
Since 1 July snowfall 86.1 67.9  
Snow Depth 0.00 in    
Sea Level Pressure  
Sea Level Pressure 29.77 in    
Wind  
Wind Speed 13 mph (WNW)    
Max Wind Speed 25 mph    
Max Gust Speed 32 mph    
Visibility 8 miles    
Events Rain    
T = Trace of Precipitation, MM = Missing Value Source: NWS Daily Summary

Daily Weather History Graph

Daily Weather History Graph

Search for Another Location

Airport or City:

Trip Planner

Search our weather history database for the weather conditions in past years. The results will help you decide how hot, cold, wet, or windy it might be!

Date:

Astronomy

Apr. 22, 2014 Rise Set
Actual Time 6:37 AM EDT 8:15 PM EDT
Civil Twilight 6:07 AM EDT 8:44 PM EDT
Nautical Twilight 5:32 AM EDT 9:20 PM EDT
Astronomical Twilight 4:54 AM EDT 9:58 PM EDT
Moon 2:29 AM EDT (4/22) 1:10 PM EDT (4/22)
Length of Visible Light 14h 36m
Length of Day
13h 38m
Last Quarter, 46% of the Moon is Illuminated
Apr 22
Last Quarter
Apr 29
New
May 6
First Quarter
May 14
Full
May 21
Last Quarter

Hourly Weather History & Observations

Time (EDT) Temp. Windchill Dew Point Humidity Pressure Visibility Wind Dir Wind Speed Gust Speed Precip Events Conditions
12:51 AM 64.9 °F - 48.9 °F 56% 29.78 in 10.0 mi SW 6.9 mph - 0.00 in Rain Light Rain
1:51 AM 64.4 °F - 50.0 °F 59% 29.79 in 10.0 mi West 10.4 mph - N/A Rain Light Rain
2:51 AM 61.0 °F - 52.0 °F 72% 29.75 in 10.0 mi WSW 5.8 mph - 0.01 in Rain Light Rain
3:51 AM 60.8 °F - 51.8 °F 72% 29.74 in 10.0 mi SW 5.8 mph - N/A Rain Light Rain
4:51 AM 60.1 °F - 52.0 °F 75% 29.71 in 9.0 mi SSW 11.5 mph - 0.00 in Rain Light Rain
5:51 AM 59.0 °F - 53.1 °F 81% 29.70 in 9.0 mi SSW 10.4 mph - 0.02 in Rain Light Rain
6:03 AM 59.0 °F - 53.1 °F 81% 29.70 in 7.0 mi SSW 8.1 mph - 0.00 in Rain Light Rain
6:51 AM 59.0 °F - 54.0 °F 83% 29.69 in 9.0 mi SW 10.4 mph - 0.01 in   Overcast
7:31 AM 59.0 °F - 54.0 °F 83% 29.71 in 8.0 mi WSW 12.7 mph - N/A   Overcast
7:51 AM 59.0 °F - 54.0 °F 83% 29.70 in 7.0 mi WSW 11.5 mph - N/A   Overcast
8:31 AM 60.1 °F - 55.0 °F 83% 29.71 in 6.0 mi West 9.2 mph - N/A   Haze
8:51 AM 60.1 °F - 55.0 °F 83% 29.70 in 7.0 mi West 11.5 mph - N/A   Overcast
9:51 AM 62.1 °F - 55.0 °F 78% 29.70 in 7.0 mi WNW 13.8 mph 20.7 mph N/A   Overcast
10:51 AM 62.1 °F - 55.0 °F 78% 29.70 in 5.0 mi WNW 19.6 mph 24.2 mph N/A   Haze
11:06 AM 53.1 °F - 46.9 °F 80% 29.74 in 4.0 mi North 16.1 mph 28.8 mph N/A   Haze
11:14 AM 52.0 °F - 46.9 °F 83% 29.75 in 6.0 mi North 13.8 mph - N/A   Haze
11:51 AM 50.0 °F - 46.0 °F 86% 29.76 in 2.5 mi North 9.2 mph - N/A   Overcast
12:17 PM 48.9 °F - 45.0 °F 86% 29.77 in 1.8 mi North 9.2 mph - N/A   Overcast
12:51 PM 48.9 °F - 45.0 °F 86% 29.77 in 0.8 mi North 8.1 mph - N/A   Overcast
1:51 PM 48.0 °F - 45.0 °F 89% 29.78 in 1.2 mi NNW 5.8 mph - N/A   Overcast
2:07 PM 48.9 °F - 45.0 °F 86% 29.78 in 3.0 mi NW 6.9 mph - N/A   Overcast
2:51 PM 52.0 °F - 45.0 °F 77% 29.78 in 7.0 mi North 9.2 mph - N/A   Overcast
3:36 PM 55.0 °F - 42.1 °F 62% 29.77 in 10.0 mi NNW 13.8 mph - N/A   Mostly Cloudy
3:51 PM 55.9 °F - 39.9 °F 55% 29.77 in 10.0 mi NW 16.1 mph 24.2 mph N/A   Scattered Clouds
4:51 PM 57.0 °F - 35.1 °F 44% 29.78 in 10.0 mi WNW 24.2 mph 31.1 mph N/A   Partly Cloudy
5:51 PM 55.4 °F - 33.8 °F 44% 29.80 in 10.0 mi NNW 17.3 mph 27.6 mph N/A   Partly Cloudy
6:51 PM 52.0 °F - 35.1 °F 53% 29.81 in 10.0 mi NNW 13.8 mph 23.0 mph N/A   Mostly Cloudy
7:51 PM 51.1 °F - 33.1 °F 50% 29.83 in 10.0 mi NW 17.3 mph 20.7 mph N/A   Mostly Cloudy
8:51 PM 48.9 °F - 35.1 °F 59% 29.86 in 10.0 mi NNW 12.7 mph 21.9 mph N/A   Mostly Cloudy
9:51 PM 46.9 °F - 36.0 °F 66% 29.90 in 10.0 mi NNW 15.0 mph - 0.00 in Rain Light Rain
10:51 PM 46.0 °F 39.9 °F 34.0 °F 63% 29.92 in 10.0 mi NW 13.8 mph - 0.00 in   Overcast
11:51 PM 44.1 °F 37.4 °F 35.1 °F 71% 29.93 in 10.0 mi North 13.8 mph - N/A   Overcast